Retour au catalogue

STRV 1A

ActifScienceHEO
NORAD 23125·PAYLOAD·🇬🇧 United Kingdom

Lancé Jun 17, 1994 depuis Guiana Space Centre

Loading…

Prochains Passages (prochaines 24 heures)

TLE

FraisSource: Space-Track

Époque: Sep 14, 2026, 12:06 UTC

1 23125U 94034B   26257.50484410  .00010509  00000-0  13183-2 0  9994
2 23125   7.3418 177.2537 6420363 356.9697   0.5054  3.45101623337270

Suivez STRV 1A en temps réel avec AllMySat

Download on the App Store